Location: Newark
(23.3970°S, 47.6010°W)
Time: 10:19:23
(UTC+00:00)

deb Explorer IX - Pass Details

Date: 24 February 2020
Orbit: 547 x 1101 km, 38.8° (Epoch: 28 March)

Event Time Altitude Azimuth Distance (km) Brightness Sun altitude
Rises 00:34:50 0° 280° (W) 3,504 ? -37.1°
Reaches altitude 10° 00:37:26 10° 273° (W) 2,648 ? -37.6°
Enters shadow 00:42:50 40° 218° (SW) 1,449 ? -38.6°
Maximum altitude 00:43:32 41° 203° (SSW) 1,436 - -38.7°
Drops below altitude 10° 00:50:17 10° 134° (SE) 2,932 - -40.0°
Sets 00:53:19 0° 127° (SE) 3,917 - -40.5°
